Terminal Aerodrome Forecast
Issued by NWS Wakefield, VA

Home | Current Version | Previous Version | Text Only | Print | Product List | Glossary On
Versions: 1 2 3 4 5 6 7 8 9 10 11 12 13 14
000
FTUS41 KAKQ 240500
TAFRIC
TAF
KRIC 240520Z 2406/2506 33006KT P6SM SKC
     FM241400 34011KT P6SM SCT150
     FM242000 32005KT P6SM SCT250
     FM250000 VRB02KT P6SM BKN250=

USA.gov is the U.S. government's official web portal to all federal, state and local government web resources and services.